Tracking 28902 objects as of 19-May-2024
HD Live streaming from Space Station
objects crossing your sky now

KSF3-B

Track KSF3-B now!
10-day predictions


NORAD ID: 55019
Int'l Code: 2023-001L
Perigee: 487.1 km
Apogee: 497.4 km
Inclination: 97.4 °
Period: 94.3 minutes
Semi major axis: 6863 km
RCS: Unknown
Launch date: January 3, 2023
Source: Luxembourg (LUXE)
Launch site: AIR FORCE EASTERN TEST RANGE (AFETR)
Your satellite tracking list
Your tracking list is empty




NASA's NSSDC Master Catalog

Two Line Element Set (TLE):
1 55019U 23001L   24139.88399523  .00045360  00000-0  17107-2 0  9998
2 55019  97.4309 201.6019 0007508 282.5431  77.4968 15.26881579 76273
Source of the keplerian elements: AFSPC